| time (UTC) | temp F | wind direction | speed MPH | gust MPH | rain 1hr in | rain 24hr in | rain mn in | humidity % | barometer mb |
| 20260508153605 | 62 | 175 | 3.0 | 12.0 | 0.00 | 0.00 | 0.00 | 45 | 1011.2 |
| 20260508153106 | 62 | 164 | 2.0 | 7.0 | 0.00 | 0.00 | 0.00 | 40 | 1011.1 |
| 20260508152605 | 63 | 208 | 3.0 | 7.0 | 0.00 | 0.00 | 0.00 | 43 | 1011.2 |
| 20260508151606 | 62 | 195 | 2.0 | 9.0 | 0.00 | 0.00 | 0.00 | 44 | 1011.2 |
| 20260508151105 | 63 | 202 | 3.0 | 9.0 | 0.00 | 0.00 | 0.00 | 45 | 1011.3 |
| 20260508150605 | 62 | 209 | 2.0 | 5.0 | 0.00 | 0.00 | 0.00 | 52 | 1011.2 |
| 20260508150106 | 62 | 184 | 2.0 | 9.0 | 0.00 | 0.00 | 0.00 | 46 | 1011.3 |
| 20260508145606 | 62 | 193 | 2.0 | 6.0 | 0.00 | 0.00 | 0.00 | 47 | 1011.3 |
| 20260508145106 | 61 | 215 | 3.0 | 7.0 | 0.00 | 0.00 | 0.00 | 46 | 1011.3 |
| 20260508144605 | 61 | 210 | 2.0 | 5.0 | 0.00 | 0.00 | 0.00 | 46 | 1011.3 |
| 20260508144105 | 61 | 237 | 3.0 | 5.0 | 0.00 | 0.00 | 0.00 | 49 | 1011.3 |
| 20260508143106 | 61 | 157 | 1.0 | 5.0 | 0.00 | 0.00 | 0.00 | 48 | 1011.4 |
| 20260508142605 | 61 | 168 | 3.0 | 9.0 | 0.00 | 0.00 | 0.00 | 45 | 1011.4 |
| 20260508142105 | 61 | 145 | 2.0 | 7.0 | 0.00 | 0.00 | 0.00 | 46 | 1011.5 |
| 20260508141105 | 60 | 213 | 2.0 | 5.0 | 0.00 | 0.00 | 0.00 | 47 | 1011.6 |
| 20260508140606 | 60 | 216 | 2.0 | 5.0 | 0.00 | 0.00 | 0.00 | 47 | 1011.6 |
| 20260508140105 | 60 | 143 | 2.0 | 3.0 | 0.00 | 0.00 | 0.00 | 53 | 1011.6 |
| 20260508135605 | 60 | 188 | 2.0 | 7.0 | 0.00 | 0.00 | 0.00 | 51 | 1011.6 |
| 20260508135106 | 59 | 206 | 2.0 | 6.0 | 0.00 | 0.00 | 0.00 | 47 | 1011.6 |
| 20260508134106 | 59 | 209 | 4.0 | 10.0 | 0.00 | 0.00 | 0.00 | 51 | 1011.8 |
| 20260508133605 | 58 | 209 | 2.0 | 6.0 | 0.00 | 0.00 | 0.00 | 50 | 1011.8 |
| 20260508133106 | 58 | 177 | 2.0 | 7.0 | 0.00 | 0.00 | 0.00 | 51 | 1011.9 |
| 20260508132105 | 58 | 188 | 3.0 | 5.0 | 0.00 | 0.00 | 0.00 | 52 | 1012.0 |
| 20260508131605 | 57 | 169 | 2.0 | 5.0 | 0.00 | 0.00 | 0.00 | 52 | 1012.0 |
| 20260508131105 | 57 | 266 | 2.0 | 5.0 | 0.00 | 0.00 | 0.00 | 54 | 1012.1 |
| 20260508130605 | 57 | 233 | 1.0 | 6.0 | 0.00 | 0.00 | 0.00 | 58 | 1012.1 |
| 20260508130106 | 56 | 230 | 5.0 | 8.0 | 0.00 | 0.00 | 0.00 | 55 | 1012.1 |
| 20260508125605 | 56 | 211 | 2.0 | 6.0 | 0.00 | 0.00 | 0.00 | 56 | 1012.0 |
| 20260508125105 | 55 | 143 | 2.0 | 3.0 | 0.00 | 0.00 | 0.00 | 59 | 1012.0 |
| 20260508124105 | 55 | 216 | 2.0 | 6.0 | 0.00 | 0.00 | 0.00 | 58 | 1012.1 |
| 20260508123606 | 54 | 205 | 2.0 | 3.0 | 0.00 | 0.00 | 0.00 | 60 | 1012.1 |
| 20260508123106 | 54 | 238 | 1.0 | 3.0 | 0.00 | 0.00 | 0.00 | 62 | 1012.1 |
| 20260508122605 | 54 | 214 | 3.0 | 10.0 | 0.00 | 0.00 | 0.00 | 62 | 1012.1 |
| 20260508122105 | 53 | 143 | 1.0 | 3.0 | 0.00 | 0.00 | 0.00 | 62 | 1012.1 |
| 20260508121606 | 53 | 158 | 3.0 | 5.0 | 0.00 | 0.00 | 0.00 | 63 | 1012.1 |
| 20260508121105 | 53 | 209 | 2.0 | 5.0 | 0.00 | 0.00 | 0.00 | 63 | 1012.1 |
| 20260508120106 | 52 | 115 | 2.0 | 7.0 | 0.00 | 0.00 | 0.00 | 66 | 1012.1 |
| 20260508115605 | 52 | 136 | 1.0 | 3.0 | 0.00 | 0.00 | 0.00 | 68 | 1012.1 |
| 20260508115105 | 51 | 141 | 1.0 | 5.0 | 0.00 | 0.00 | 0.00 | 71 | 1012.0 |
| 20260508114605 | 51 | 239 | 1.0 | 7.0 | 0.00 | 0.00 | 0.00 | 69 | 1012.0 |
| 20260508114106 | 50 | 141 | 2.0 | 3.0 | 0.00 | 0.00 | 0.00 | 72 | 1012.0 |
| 20260508113605 | 50 | 231 | 1.0 | 5.0 | 0.00 | 0.00 | 0.00 | 71 | 1012.0 |
| 20260508113105 | 49 | 213 | 1.0 | 5.0 | 0.00 | 0.00 | 0.00 | 73 | 1011.9 |
| 20260508112605 | 49 | 215 | 2.0 | 3.0 | 0.00 | 0.00 | 0.00 | 73 | 1011.9 |
| 20260508112105 | 48 | 0 | 1.0 | 3.0 | 0.00 | 0.00 | 0.00 | 74 | 1011.9 |
| 20260508111605 | 48 | 250 | 1.0 | 5.0 | 0.00 | 0.00 | 0.00 | 74 | 1011.9 |
| 20260508110605 | 47 | 168 | 2.0 | 6.0 | 0.00 | 0.00 | 0.00 | 76 | 1011.9 |
| 20260508110105 | 47 | 218 | 2.0 | 3.0 | 0.00 | 0.00 | 0.00 | 76 | 1012.0 |
| 20260508105605 | 47 | 143 | 2.0 | 3.0 | 0.00 | 0.00 | 0.00 | 77 | 1011.9 |
| 20260508105105 | 46 | 242 | 1.0 | 3.0 | 0.00 | 0.00 | 0.00 | 77 | 1011.9 |
| 20260508104605 | 46 | 225 | 0.0 | 5.0 | 0.00 | 0.00 | 0.00 | 77 | 1011.9 |
| 20260508104105 | 46 | 232 | 0.0 | 2.0 | 0.00 | 0.00 | 0.00 | 77 | 1011.8 |
| 20260508103605 | 46 | 223 | 0.0 | 2.0 | 0.00 | 0.00 | 0.00 | 77 | 1011.7 |
| 20260508102605 | 47 | 229 | 0.0 | 0.0 | 0.00 | 0.00 | 0.00 | 75 | 1011.8 |
| 20260508102105 | 47 | 229 | 0.0 | 0.0 | 0.00 | 0.00 | 0.00 | 75 | 1011.7 |
| 20260508101605 | 47 | 229 | 0.0 | 0.0 | 0.00 | 0.00 | 0.00 | 74 | 1011.6 |
| 20260508101105 | 47 | 229 | 0.0 | 0.0 | 0.00 | 0.00 | 0.00 | 74 | 1011.5 |
| 20260508100605 | 47 | 229 | 0.0 | 0.0 | 0.00 | 0.00 | 0.00 | 74 | 1011.5 |
| 20260508100105 | 47 | 229 | 0.0 | 0.0 | 0.00 | 0.00 | 0.00 | 73 | 1011.3 |
| 20260508095605 | 47 | 229 | 0.0 | 0.0 | 0.00 | 0.00 | 0.00 | 73 | 1011.2 |
| 20260508095105 | 47 | 229 | 0.0 | 0.0 | 0.00 | 0.01 | 0.00 | 72 | 1011.1 |
| 20260508094605 | 47 | 229 | 0.0 | 0.0 | 0.00 | 0.01 | 0.00 | 72 | 1011.1 |
| 20260508093606 | 48 | 229 | 0.0 | 1.0 | 0.00 | 0.01 | 0.00 | 71 | 1011.0 |
| 20260508093105 | 48 | 229 | 0.0 | 1.0 | 0.00 | 0.02 | 0.00 | 70 | 1011.0 |
| 20260508092605 | 48 | 229 | 0.0 | 1.0 | 0.00 | 0.02 | 0.00 | 69 | 1011.1 |
| 20260508092105 | 48 | 229 | 0.0 | 1.0 | 0.00 | 0.02 | 0.00 | 68 | 1011.0 |
| 20260508091605 | 48 | 229 | 0.0 | 2.0 | 0.00 | 0.03 | 0.00 | 68 | 1011.1 |
| 20260508091105 | 48 | 229 | 0.0 | 2.0 | 0.00 | 0.04 | 0.00 | 68 | 1011.1 |
| 20260508090605 | 48 | 228 | 2.0 | 5.0 | 0.00 | 0.04 | 0.00 | 66 | 1011.2 |
| 20260508090105 | 48 | 225 | 1.0 | 1.0 | 0.00 | 0.05 | 0.00 | 66 | 1011.1 |
| 20260508085605 | 48 | 225 | 0.0 | 2.0 | 0.00 | 0.05 | 0.00 | 67 | 1011.2 |
| 20260508085105 | 48 | 210 | 0.0 | 1.0 | 0.00 | 0.06 | 0.00 | 65 | 1011.1 |
| 20260508084605 | 48 | 210 | 0.0 | 1.0 | 0.00 | 0.06 | 0.00 | 63 | 1011.0 |
| 20260508084105 | 48 | 210 | 1.0 | 3.0 | 0.00 | 0.07 | 0.00 | 63 | 1011.0 |
| 20260508083605 | 48 | 209 | 0.0 | 2.0 | 0.00 | 0.07 | 0.00 | 64 | 1011.0 |
| 20260508083105 | 48 | 215 | 1.0 | 2.0 | 0.00 | 0.07 | 0.00 | 63 | 1011.1 |
| 20260508082605 | 48 | 215 | 1.0 | 2.0 | 0.00 | 0.07 | 0.00 | 63 | 1011.0 |
| 20260508082105 | 48 | 215 | 1.0 | 2.0 | 0.00 | 0.08 | 0.00 | 62 | 1011.0 |
| 20260508081605 | 48 | 198 | 2.0 | 5.0 | 0.00 | 0.08 | 0.00 | 63 | 1011.1 |
| 20260508080605 | 48 | 220 | 1.0 | 3.0 | 0.00 | 0.10 | 0.00 | 63 | 1010.9 |
| 20260508080105 | 48 | 194 | 1.0 | 5.0 | 0.00 | 0.10 | 0.00 | 65 | 1010.9 |
| 20260508075605 | 49 | 221 | 1.0 | 2.0 | 0.00 | 0.10 | 0.00 | 65 | 1010.9 |
| 20260508075105 | 49 | 221 | 0.0 | 1.0 | 0.00 | 0.10 | 0.00 | 64 | 1010.9 |
| 20260508074605 | 49 | 223 | 0.0 | 1.0 | 0.00 | 0.11 | 0.00 | 64 | 1010.8 |
| 20260508074105 | 49 | 223 | 0.0 | 3.0 | 0.00 | 0.11 | 0.00 | 65 | 1010.9 |
| 20260508073105 | 49 | 225 | 2.0 | 3.0 | 0.00 | 0.13 | 0.00 | 60 | 1010.9 |
| 20260508072604 | 48 | 213 | 3.0 | 8.0 | 0.00 | 0.14 | 0.00 | 60 | 1010.9 |
| 20260508072105 | 48 | 216 | 1.0 | 3.0 | 0.00 | 0.15 | 0.00 | 62 | 1011.0 |
| 20260508071605 | 48 | 143 | 2.0 | 6.0 | 0.00 | 0.16 | 0.00 | 60 | 1011.1 |
| 20260508071105 | 48 | 146 | 2.0 | 9.0 | 0.00 | 0.17 | 0.00 | 60 | 1011.1 |
| 20260508070606 | 48 | 187 | 2.0 | 8.0 | 0.00 | 0.17 | 0.00 | 60 | 1011.2 |
| 20260508070105 | 48 | 222 | 2.0 | 6.0 | 0.00 | 0.17 | 0.00 | 61 | 1011.0 |
| 20260508065605 | 47 | 234 | 2.0 | 7.0 | 0.00 | 0.17 | 0.00 | 61 | 1010.8 |
| 20260508064605 | 47 | 226 | 1.0 | 3.0 | 0.00 | 0.19 | 0.00 | 63 | 1010.5 |
| 20260508064105 | 47 | 200 | 0.0 | 3.0 | 0.00 | 0.19 | 0.00 | 68 | 1010.5 |
| 20260508063605 | 46 | 215 | 0.0 | 2.0 | 0.00 | 0.20 | 0.00 | 65 | 1010.2 |
| 20260508063105 | 46 | 204 | 1.0 | 2.0 | 0.00 | 0.22 | 0.00 | 67 | 1009.9 |
| 20260508062105 | 45 | 138 | 1.0 | 3.0 | 0.00 | 0.23 | 0.00 | 71 | 1010.0 |
| 20260508061605 | 45 | 233 | 0.0 | 2.0 | 0.00 | 0.24 | 0.00 | 73 | 1009.9 |
| 20260508061104 | 45 | 230 | 2.0 | 3.0 | 0.00 | 0.25 | 0.00 | 73 | 1009.9 |
| 20260508060106 | 45 | 0 | 0.0 | 0.0 | 0.00 | 0.25 | 0.00 | 81 | 1009.7 |
| 20260508055605 | 44 | 0 | 0.0 | 1.0 | 0.00 | 0.25 | 0.00 | 82 | 1009.6 |
| 20260508055105 | 44 | 359 | 0.0 | 1.0 | 0.00 | 0.25 | 0.00 | 82 | 1009.5 |
| 20260508054604 | 44 | 240 | 0.0 | 1.0 | 0.00 | 0.25 | 0.00 | 83 | 1009.5 |
| 20260508054105 | 44 | 240 | 1.0 | 3.0 | 0.00 | 0.25 | 0.00 | 82 | 1009.5 |
| 20260508053605 | 44 | 0 | 0.0 | 2.0 | 0.00 | 0.25 | 0.00 | 82 | 1009.5 |
| 20260508053104 | 44 | 0 | 0.0 | 2.0 | 0.00 | 0.25 | 0.00 | 81 | 1009.5 |
| 20260508052105 | 44 | 0 | 0.0 | 0.0 | 0.00 | 0.25 | 0.00 | 80 | 1009.5 |
| 20260508051604 | 44 | 0 | 0.0 | 0.0 | 0.00 | 0.25 | 0.00 | 81 | 1009.5 |
| 20260508051104 | 44 | 0 | 0.0 | 0.0 | 0.00 | 0.25 | 0.00 | 81 | 1009.4 |
| 20260508045105 | 44 | 0 | 0.0 | 0.0 | 0.00 | 0.25 | 0.00 | 80 | 1009.4 |
| 20260508044604 | 44 | 0 | 0.0 | 1.0 | 0.00 | 0.25 | 0.00 | 80 | 1009.4 |
| 20260508044105 | 44 | 0 | 0.0 | 1.0 | 0.00 | 0.25 | 0.00 | 80 | 1009.5 |
| 20260508043605 | 44 | 0 | 0.0 | 1.0 | 0.00 | 0.25 | 0.00 | 80 | 1009.5 |
| 20260508043105 | 45 | 0 | 0.0 | 2.0 | 0.00 | 0.25 | 0.00 | 81 | 1009.6 |
| 20260508042605 | 45 | 0 | 0.0 | 0.0 | 0.00 | 0.25 | 0.00 | 81 | 1009.6 |
| 20260508042105 | 45 | 0 | 0.0 | 1.0 | 0.00 | 0.25 | 0.00 | 81 | 1009.7 |
| 20260508041604 | 45 | 0 | 0.0 | 0.0 | 0.00 | 0.25 | 0.00 | 80 | 1009.7 |
| 20260508041105 | 45 | 0 | 0.0 | 0.0 | 0.00 | 0.25 | 0.00 | 80 | 1009.8 |
| 20260508040605 | 45 | 0 | 0.0 | 1.0 | 0.00 | 0.25 | 0.00 | 80 | 1009.8 |
| 20260508040105 | 45 | 0 | 1.0 | 3.0 | 0.00 | 0.25 | 0.00 | 80 | 1009.8 |
| 20260508035605 | 45 | 143 | 1.0 | 2.0 | 0.00 | 0.25 | 0.25 | 80 | 1009.7 |
| 20260508035105 | 45 | 143 | 1.0 | 3.0 | 0.00 | 0.25 | 0.25 | 80 | 1009.8 |
| 20260508033604 | 45 | 254 | 2.0 | 3.0 | 0.00 | 0.25 | 0.25 | 79 | 1009.8 |
| 20260508031105 | 46 | 144 | 1.0 | 2.0 | 0.00 | 0.25 | 0.25 | 79 | 1009.9 |
| 20260508030605 | 46 | 144 | 1.0 | 2.0 | 0.00 | 0.25 | 0.25 | 79 | 1009.9 |
| 20260508030105 | 46 | 144 | 1.0 | 2.0 | 0.00 | 0.25 | 0.25 | 79 | 1009.9 |
| 20260508025604 | 46 | 144 | 1.0 | 2.0 | 0.00 | 0.25 | 0.25 | 79 | 1009.8 |
| 20260508025106 | 46 | 144 | 1.0 | 2.0 | 0.00 | 0.25 | 0.25 | 78 | 1009.8 |
| 20260508024605 | 46 | 144 | 1.0 | 2.0 | 0.00 | 0.25 | 0.25 | 78 | 1009.8 |
| 20260508024105 | 46 | 144 | 1.0 | 2.0 | 0.00 | 0.25 | 0.25 | 78 | 1009.8 |
| 20260508023605 | 46 | 144 | 1.0 | 2.0 | 0.00 | 0.26 | 0.25 | 77 | 1009.7 |
| 20260508023105 | 46 | 144 | 1.0 | 2.0 | 0.00 | 0.26 | 0.25 | 77 | 1009.7 |
| 20260508022605 | 46 | 144 | 1.0 | 2.0 | 0.00 | 0.26 | 0.25 | 76 | 1009.7 |
| 20260508022105 | 46 | 244 | 0.0 | 0.0 | 0.00 | 0.26 | 0.25 | 76 | 1009.7 |
| 20260508021604 | 46 | 244 | 0.0 | 0.0 | 0.00 | 0.26 | 0.25 | 75 | 1009.8 |
| 20260508021105 | 47 | 244 | 0.0 | 0.0 | 0.00 | 0.26 | 0.25 | 74 | 1009.8 |
| 20260508020105 | 47 | 244 | 0.0 | 0.0 | 0.00 | 0.26 | 0.25 | 73 | 1009.8 |
| 20260508015605 | 47 | 244 | 0.0 | 0.0 | 0.00 | 0.26 | 0.25 | 71 | 1009.7 |
| 20260508015105 | 48 | 244 | 0.0 | 0.0 | 0.00 | 0.26 | 0.25 | 71 | 1009.7 |
| 20260508014604 | 48 | 244 | 0.0 | 0.0 | 0.00 | 0.26 | 0.25 | 71 | 1009.7 |
| 20260508014104 | 48 | 244 | 0.0 | 0.0 | 0.00 | 0.26 | 0.25 | 70 | 1009.6 |
| 20260508013105 | 49 | 244 | 0.0 | 0.0 | 0.00 | 0.26 | 0.25 | 69 | 1009.5 |
| 20260508012605 | 49 | 244 | 0.0 | 0.0 | 0.00 | 0.26 | 0.25 | 68 | 1009.5 |
| 20260508012105 | 49 | 244 | 0.0 | 0.0 | 0.00 | 0.26 | 0.25 | 68 | 1009.4 |
| 20260508011605 | 50 | 244 | 0.0 | 0.0 | 0.00 | 0.26 | 0.25 | 68 | 1009.4 |
| 20260508011105 | 50 | 244 | 0.0 | 0.0 | 0.00 | 0.26 | 0.25 | 67 | 1009.4 |
| 20260508010605 | 51 | 244 | 0.0 | 0.0 | 0.00 | 0.26 | 0.25 | 67 | 1009.4 |
| 20260508010106 | 51 | 244 | 0.0 | 0.0 | 0.00 | 0.26 | 0.25 | 65 | 1009.2 |
| 20260508005604 | 51 | 244 | 0.0 | 0.0 | 0.00 | 0.26 | 0.25 | 66 | 1009.1 |
| 20260508005105 | 52 | 244 | 0.0 | 0.0 | 0.00 | 0.26 | 0.25 | 66 | 1009.2 |
| 20260508004605 | 52 | 244 | 0.0 | 0.0 | 0.00 | 0.26 | 0.25 | 66 | 1009.1 |
| 20260508004105 | 52 | 244 | 0.0 | 0.0 | 0.00 | 0.26 | 0.25 | 64 | 1009.0 |
| 20260508003604 | 53 | 244 | 0.0 | 0.0 | 0.00 | 0.26 | 0.25 | 63 | 1008.8 |
| 20260508003105 | 53 | 244 | 0.0 | 1.0 | 0.00 | 0.26 | 0.25 | 61 | 1008.7 |
| 20260508002104 | 54 | 244 | 0.0 | 1.0 | 0.00 | 0.26 | 0.25 | 58 | 1008.7 |
| 20260508001104 | 54 | 244 | 0.0 | 1.0 | 0.00 | 0.26 | 0.25 | 54 | 1008.6 |
| 20260508000605 | 55 | 244 | 0.0 | 1.0 | 0.00 | 0.26 | 0.25 | 53 | 1008.5 |
| 20260508000104 | 55 | 244 | 0.0 | 2.0 | 0.00 | 0.26 | 0.25 | 51 | 1008.5 |
| 20260507235604 | 55 | 242 | 1.0 | 2.0 | 0.00 | 0.26 | 0.25 | 50 | 1008.3 |
| 20260507234604 | 56 | 242 | 1.0 | 2.0 | 0.00 | 0.26 | 0.25 | 49 | 1008.2 |
| 20260507234105 | 57 | 248 | 0.0 | 3.0 | 0.00 | 0.26 | 0.25 | 49 | 1008.2 |
| 20260507233605 | 57 | 144 | 1.0 | 8.0 | 0.00 | 0.26 | 0.25 | 47 | 1008.0 |
| 20260507233104 | 57 | 143 | 0.0 | 3.0 | 0.00 | 0.26 | 0.25 | 48 | 1008.1 |
| 20260507232605 | 58 | 143 | 0.0 | 5.0 | 0.00 | 0.26 | 0.25 | 46 | 1008.1 |
| 20260507231604 | 58 | 334 | 3.0 | 6.0 | 0.00 | 0.26 | 0.25 | 45 | 1007.9 |
| 20260507231105 | 58 | 143 | 1.0 | 2.0 | 0.00 | 0.26 | 0.25 | 44 | 1007.9 |
| 20260507230604 | 59 | 222 | 2.0 | 3.0 | 0.00 | 0.26 | 0.25 | 45 | 1007.8 |
| 20260507230105 | 59 | 242 | 2.0 | 5.0 | 0.00 | 0.26 | 0.25 | 44 | 1007.8 |
| 20260507225604 | 59 | 230 | 2.0 | 8.0 | 0.00 | 0.26 | 0.25 | 44 | 1007.8 |
| 20260507225104 | 59 | 111 | 2.0 | 3.0 | 0.00 | 0.26 | 0.25 | 44 | 1007.8 |
| 20260507224604 | 60 | 167 | 2.0 | 3.0 | 0.00 | 0.26 | 0.25 | 42 | 1007.7 |
| 20260507224104 | 60 | 240 | 1.0 | 3.0 | 0.00 | 0.26 | 0.25 | 46 | 1007.8 |
| 20260507223605 | 60 | 167 | 2.0 | 8.0 | 0.00 | 0.26 | 0.25 | 42 | 1007.7 |
| 20260507223105 | 60 | 238 | 0.0 | 3.0 | 0.00 | 0.26 | 0.25 | 41 | 1007.8 |
| 20260507222605 | 61 | 243 | 1.0 | 5.0 | 0.00 | 0.26 | 0.25 | 40 | 1007.7 |
| 20260507222105 | 61 | 142 | 1.0 | 3.0 | 0.00 | 0.26 | 0.25 | 42 | 1007.7 |
| 20260507221604 | 61 | 141 | 1.0 | 3.0 | 0.00 | 0.26 | 0.25 | 40 | 1007.7 |
| 20260507221104 | 61 | 203 | 1.0 | 3.0 | 0.00 | 0.26 | 0.25 | 41 | 1007.6 |
| 20260507220604 | 61 | 240 | 1.0 | 3.0 | 0.00 | 0.26 | 0.25 | 38 | 1007.6 |
| 20260507220105 | 61 | 233 | 2.0 | 5.0 | 0.00 | 0.26 | 0.25 | 40 | 1007.6 |
| 20260507215604 | 61 | 149 | 2.0 | 3.0 | 0.00 | 0.26 | 0.25 | 43 | 1007.5 |
| 20260507215104 | 61 | 139 | 5.0 | 12.0 | 0.00 | 0.26 | 0.25 | 37 | 1007.5 |
| 20260507214604 | 62 | 155 | 3.0 | 8.0 | 0.00 | 0.26 | 0.25 | 39 | 1007.5 |
| 20260507214106 | 62 | 246 | 2.0 | 5.0 | 0.00 | 0.26 | 0.25 | 40 | 1007.4 |
| 20260507213604 | 62 | 257 | 1.0 | 6.0 | 0.00 | 0.26 | 0.25 | 40 | 1007.5 |
| 20260507212104 | 63 | 248 | 2.0 | 5.0 | 0.00 | 0.26 | 0.25 | 37 | 1007.3 |
| 20260507211604 | 64 | 243 | 3.0 | 5.0 | 0.00 | 0.26 | 0.25 | 35 | 1007.4 |
| 20260507210104 | 65 | 240 | 2.0 | 15.0 | 0.00 | 0.26 | 0.25 | 38 | 1007.3 |
| 20260507205604 | 65 | 234 | 3.0 | 12.0 | 0.00 | 0.26 | 0.25 | 35 | 1007.3 |
| 20260507205104 | 65 | 200 | 2.0 | 5.0 | 0.00 | 0.26 | 0.25 | 36 | 1007.2 |
| 20260507204604 | 64 | 235 | 1.0 | 3.0 | 0.00 | 0.26 | 0.25 | 43 | 1007.1 |
| 20260507204104 | 64 | 224 | 5.0 | 12.0 | 0.00 | 0.26 | 0.25 | 35 | 1007.2 |
| 20260507203604 | 64 | 154 | 3.0 | 8.0 | 0.00 | 0.26 | 0.25 | 37 | 1007.2 |
| 20260507203104 | 64 | 241 | 2.0 | 8.0 | 0.00 | 0.26 | 0.25 | 37 | 1007.1 |
| 20260507202604 | 64 | 142 | 1.0 | 6.0 | 0.00 | 0.26 | 0.25 | 37 | 1007.2 |
| 20260507202104 | 65 | 211 | 2.0 | 7.0 | 0.00 | 0.26 | 0.25 | 36 | 1007.2 |
| 20260507201604 | 65 | 239 | 2.0 | 8.0 | 0.00 | 0.26 | 0.25 | 36 | 1007.2 |
| 20260507201105 | 65 | 196 | 3.0 | 9.0 | 0.00 | 0.27 | 0.25 | 37 | 1007.2 |
| 20260507200604 | 64 | 225 | 3.0 | 6.0 | 0.00 | 0.27 | 0.25 | 36 | 1007.2 |
| 20260507200104 | 64 | 219 | 3.0 | 12.0 | 0.00 | 0.27 | 0.25 | 36 | 1007.3 |
| 20260507195605 | 65 | 217 | 4.0 | 8.0 | 0.00 | 0.27 | 0.25 | 36 | 1007.4 |
| 20260507195105 | 65 | 243 | 3.0 | 8.0 | 0.00 | 0.27 | 0.25 | 34 | 1007.3 |
| 20260507192604 | 65 | 216 | 5.0 | 6.0 | 0.00 | 0.27 | 0.25 | 36 | 1007.5 |
| 20260507192104 | 65 | 158 | 5.0 | 12.0 | 0.00 | 0.27 | 0.25 | 37 | 1007.6 |
| 20260507191604 | 64 | 152 | 3.0 | 8.0 | 0.00 | 0.27 | 0.25 | 36 | 1007.7 |
| 20260507191104 | 65 | 153 | 4.0 | 12.0 | 0.00 | 0.27 | 0.25 | 37 | 1007.8 |
| 20260507190604 | 65 | 210 | 3.0 | 9.0 | 0.00 | 0.27 | 0.25 | 35 | 1007.8 |
| 20260507190105 | 64 | 231 | 4.0 | 14.0 | 0.00 | 0.27 | 0.25 | 37 | 1007.9 |
| 20260507185605 | 65 | 154 | 4.0 | 10.0 | 0.00 | 0.27 | 0.25 | 38 | 1007.9 |
| 20260507185104 | 64 | 222 | 2.0 | 8.0 | 0.00 | 0.27 | 0.25 | 37 | 1008.1 |
| 20260507184604 | 64 | 198 | 3.0 | 7.0 | 0.00 | 0.27 | 0.25 | 39 | 1008.2 |
| 20260507184104 | 64 | 237 | 5.0 | 10.0 | 0.00 | 0.27 | 0.25 | 40 | 1008.1 |
| 20260507183605 | 64 | 202 | 3.0 | 7.0 | 0.00 | 0.27 | 0.25 | 38 | 1008.2 |
| 20260507182604 | 63 | 148 | 4.0 | 10.0 | 0.00 | 0.27 | 0.25 | 37 | 1008.3 |
| 20260507182104 | 63 | 141 | 5.0 | 13.0 | 0.00 | 0.27 | 0.25 | 38 | 1008.3 |
| 20260507181605 | 63 | 157 | 6.0 | 12.0 | 0.00 | 0.28 | 0.25 | 38 | 1008.4 |
| 20260507181104 | 64 | 218 | 5.0 | 9.0 | 0.00 | 0.29 | 0.25 | 35 | 1008.4 |
| 20260507180604 | 64 | 143 | 3.0 | 8.0 | 0.00 | 0.29 | 0.25 | 38 | 1008.5 |
| 20260507180104 | 63 | 157 | 3.0 | 12.0 | 0.00 | 0.30 | 0.25 | 39 | 1008.5 |
| 20260507175604 | 63 | 205 | 4.0 | 12.0 | 0.00 | 0.30 | 0.25 | 40 | 1008.5 |
| 20260507175104 | 63 | 143 | 5.0 | 12.0 | 0.00 | 0.30 | 0.25 | 34 | 1008.7 |
| 20260507174603 | 63 | 173 | 2.0 | 5.0 | 0.00 | 0.30 | 0.25 | 38 | 1008.8 |
| 20260507174104 | 62 | 173 | 3.0 | 13.0 | 0.00 | 0.30 | 0.25 | 40 | 1008.7 |
| 20260507173604 | 62 | 173 | 6.0 | 15.0 | 0.00 | 0.30 | 0.25 | 36 | 1008.7 |
| 20260507173104 | 62 | 154 | 5.0 | 14.0 | 0.00 | 0.31 | 0.25 | 39 | 1008.8 |
| 20260507172104 | 63 | 180 | 3.0 | 7.0 | 0.00 | 0.32 | 0.25 | 36 | 1009.1 |
| 20260507171604 | 63 | 185 | 5.0 | 15.0 | 0.00 | 0.32 | 0.25 | 41 | 1009.2 |
| 20260507170604 | 62 | 148 | 3.0 | 7.0 | 0.00 | 0.33 | 0.25 | 42 | 1009.2 |
| 20260507170104 | 62 | 141 | 2.0 | 6.0 | 0.00 | 0.33 | 0.25 | 42 | 1009.3 |
| 20260507165604 | 62 | 169 | 7.0 | 12.0 | 0.00 | 0.33 | 0.25 | 40 | 1009.3 |
| 20260507165104 | 61 | 219 | 2.0 | 9.0 | 0.00 | 0.33 | 0.25 | 42 | 1009.5 |
| 20260507164604 | 61 | 219 | 5.0 | 12.0 | 0.00 | 0.33 | 0.25 | 44 | 1009.5 |
| 20260507164104 | 61 | 190 | 5.0 | 10.0 | 0.00 | 0.33 | 0.25 | 42 | 1009.5 |
| 20260507163604 | 61 | 247 | 3.0 | 9.0 | 0.00 | 0.34 | 0.25 | 42 | 1009.5 |
| 20260507163104 | 61 | 160 | 5.0 | 12.0 | 0.00 | 0.34 | 0.25 | 41 | 1009.6 |
| 20260507162604 | 61 | 148 | 4.0 | 10.0 | 0.00 | 0.34 | 0.25 | 42 | 1009.6 |
| 20260507162104 | 61 | 169 | 4.0 | 8.0 | 0.00 | 0.34 | 0.25 | 43 | 1009.6 |
| 20260507161604 | 61 | 144 | 3.0 | 9.0 | 0.00 | 0.34 | 0.25 | 41 | 1009.7 |
| 20260507160603 | 60 | 219 | 2.0 | 8.0 | 0.00 | 0.34 | 0.25 | 41 | 1009.9 |
| 20260507160104 | 60 | 177 | 3.0 | 13.0 | 0.00 | 0.34 | 0.25 | 44 | 1009.9 |
| 20260507155604 | 60 | 242 | 3.0 | 12.0 | 0.00 | 0.34 | 0.25 | 43 | 1009.9 |
| 20260507155104 | 60 | 221 | 5.0 | 12.0 | 0.00 | 0.34 | 0.25 | 41 | 1009.9 |
| 20260507154604 | 60 | 190 | 3.0 | 10.0 | 0.00 | 0.34 | 0.25 | 46 | 1010.0 |
| 20260507154104 | 60 | 201 | 3.0 | 8.0 | 0.00 | 0.34 | 0.25 | 47 | 1010.0 |